Other Public Products
Issued by NWS Charleston, SC

Current Version | Previous Version | Graphics & Text | Print | Product List | Glossary On
Versions: 1 2 3 4 5 6 7 8 9 10 11 12 13 14 15 16 17 18 19 20 21 22 23 24 25 26 27 28 29 30 31 32 33 34 35 36 37 38 39 40 41 42 43 44 45 46 47 48 49 50
650
FPUS82 KCHS 220327
OPUCHS

TEST...KCHS/KSAV Gateway Observations...TEST
National Weather Service Charleston SC
1100 PM EDT MON AUG 21 2017

NOTE: "fair" indicates few or no clouds below 12,000 feet with no
significant weather and/or obstructions to visibility.

SCZ050-WAZ558-NCZ071-TXZ119-213-PAZ071-DCZ001-FLZ074-172-MI076-
NYZ176-178-MAZ016-IL014-TNZ027-NJZ106-GAZ044-MD014-220400-

...Gateway Observations for Charleston International...

CITY           SKY/WX    TMP DP  RH WIND       PRES   REMARKS
Chas Airport   CLOUDY    76  75  97 NW6       30.16R
Seattle        PTCLDY    76  52  43 N9        30.01F
Charlotte      PTCLDY    81  71  71 S10       30.19R
Dallas DFW     PTCLDY    87  71  58 SE13      30.03R HX  93
Dallas Love    PTCLDY    87  70  56 SE15      30.04R HX  92
Philladelphia  CLOUDY    78  73  84 S8        30.12F
Wash National  MOCLDY    78  74  87 S7        30.13S
Baltimore      PTCLDY    73  73 100 CALM      30.12S
Miami          TSTM      81  76  84 NE6       30.09S
Detroit        CLOUDY    77  71  82 S7        29.97F
Newark         PTCLDY    77  70  79 S12       30.10F
Laguardia      MOCLDY    80  71  74 SW12      30.09F
J F K          PTCLDY    76  72  87 S8        30.11F
Boston Logan   CLEAR     76  63  64 SW15      30.06F
Ft. Lauderdale LGT RAIN  79  73  82 E12       30.08F
Chicago O`Hare CLOUDY    77  67  71 SW8       29.93F
Chicago Midway CLOUDY    78  71  79 S8        29.94F
Houston Bush   PTCLDY    81  74  79 SE8       30.07R
Houston Hobby  PTCLDY    85  74  69 SE3       30.07R HX  92
Nashville      PTCLDY    80  71  74 S3        30.14R
Atlanta        PTCLDY    82  71  69 SE5       30.18S

$$

GAZ044-118-TXZ119-213-NCZ071-DCZ001-MDZ014-506-PAZ021-071-NJZ106-
NYZ176-178-MAZ106-OHZ011-021-055-MIZ076-KYZ091-ILZ014-INZ047-
MNZ060-ONZ431-220400-

...Gateway Observations for Savannah International...

CITY           SKY/WX    TMP DP  RH WIND       PRES   REMARKS
Savannah Arpt  CLOUDY    76  74  93 CALM      30.15S
Atlanta        PTCLDY    82  71  69 SE5       30.18S
Charlotte      PTCLDY    81  71  71 S10       30.19R
Dallas DFW     PTCLDY    87  71  58 SE13      30.03R HX  93
Houston Bush   PTCLDY    81  74  79 SE8       30.07R
Wash National  MOCLDY    78  74  87 S7        30.13S
Wash Dulles    CLEAR     73  72  96 S6        30.13F
Baltimore      PTCLDY    73  73 100 CALM      30.12S
Philadelphia   CLOUDY    78  73  84 S8        30.12F
Newark         PTCLDY    77  70  79 S12       30.10F
Laguardia      MOCLDY    80  71  74 SW12      30.09F
J F K          PTCLDY    76  72  87 S8        30.11F
Boston         CLEAR     76  63  64 SW15      30.06F
Pittsburg      PTCLDY    76  72  87 S5        30.12F
Akron          PTCLDY    78  69  73 S9        30.09F
Cleveland      CLOUDY    82  69  64 S9        30.05F
Cincinnati     CLOUDY    78  71  79 S7        30.09S
Columbus       CLOUDY    75  69  80 S6        30.07F
Detroit        CLOUDY    77  71  82 S7        29.97F
Chicago O`Hare CLOUDY    77  67  71 SW8       29.93F
Minneapolis    CLOUDY    69  63  81 W13G21    29.86S
Indianapolis   MOCLDY    74  71  91 S6        30.04F
Toronto Canada MOCLDY    77  66  69 S7        29.99F

$$




USA.gov is the U.S. government's official web portal to all federal, state and local government web resources and services.